User: anonymous   Login
Location: Chevoux
(46.3801°N, 4.9476°E)
Time: 13:27:58
(UTC+00:00)
Language:

SR - Orbit

View from above orbital plane
View from above orbital plane
View from above satellite
View from above satellite

Ground track
Ground track

The orbit data is extracted from the following two-line orbital elements,

1 00046U 60007B   21132.76375774  .00000148  00000-0  51617-4 0  9995
2 00046  66.6905 236.6446 0217033 246.5414 111.2748 14.49396697186835
Epoch (UTC): 12 May 2021 18:19:48
Eccentricity: 0.0217033
inclination: 66.6905°
perigee height: 573 km
apogee height: 882 km
right ascension of ascending node: 236.6446°
argument of perigee: 246.5414°
revolutions per day: 14.49396697
mean anomaly at epoch: 111.2748°
orbit number at epoch: 18683

The dashed part of the orbit path shows where the satellite is in the earth's shadow,  

DLR